Weather History for Rutherfordton, NC

Change the Weather History Date:

Saturday, August 31, 2013

  Actual Average (KAVL) Record (KAVL)
Temperature  
Mean Temperature 76 °F 71 °F  
Max Temperature 86 °F 81 °F 93 °F (1953)
Min Temperature 67 °F 61 °F 45 °F (1946)
Degree Days  
Heating Degree Days 0 0  
Month to date heating degree days 0  
Since 1 June heating degree days 16  
Since 1 July heating degree days 2  
Cooling Degree Days 12 6  
Month to date cooling degree days 247  
Year to date cooling degree days 757  
Since 1 June cooling degree days 699  
Growing Degree Days 26 (Base 50)    
Moisture  
Dew Point 70 °F    
Average Humidity 89    
Maximum Humidity 100    
Minimum Humidity 59    
Precipitation  
Precipitation 0.21 in 0.14 in 3.51 in (1910)
Month to date precipitation 4.40  
Year to date precipitation 31.61  
Snow  
Snow 0.00 in 0.00 in 0.00 in ()
Month to date snowfall 0.0  
Since 1 June snowfall 0.0  
Since 1 July snowfall 0.0  
Snow Depth -    
Sea Level Pressure  
Sea Level Pressure 29.97 in    
Wind  
Wind Speed 1 mph (South)    
Max Wind Speed 13 mph    
Max Gust Speed 20 mph    
Visibility 7 miles    
Events Fog , Rain , Thunderstorm    
T = Trace of Precipitation, MM = Missing Value Source: NWS Daily Summary

Daily Weather History Graph

Daily Weather History Graph

Search for Another Location

Airport:

Trip Planner

Search our weather history database for the weather conditions in past years. The results will help you decide how hot, cold, wet, or windy it might be!

Date:

Astronomy

Aug. 31, 2013 Rise Set
Actual Time 6:59 AM EDT 7:55 PM EDT
Civil Twilight 6:33 AM EDT 8:21 PM EDT
Nautical Twilight 6:02 AM EDT 8:52 PM EDT
Astronomical Twilight 5:30 AM EDT 9:24 PM EDT
Moon 2:33 AM EDT (8/31) 4:47 PM EDT (8/31)
Length of Visible Light 13h 48m
Length of Day
12h 56m
Waning Crescent, 21% of the Moon is Illuminated
Aug 31
Waning Crescent
Sep 5
New
Sep 12
First Quarter
Sep 19
Full
Sep 26
Last Quarter

Hourly Weather History & Observations

Time (EDT) Temp. Heat Index Dew Point Humidity Pressure Visibility Wind Dir Wind Speed Gust Speed Precip Events Conditions
12:14 AM 73.4 °F - 71.6 °F 94% 30.01 in 7.0 mi Calm Calm - N/A   Overcast
12:34 AM 71.6 °F - 71.6 °F 100% 30.01 in 7.0 mi Calm Calm - N/A   Mostly Cloudy
12:57 AM 71.6 °F - 71.6 °F 100% 30.01 in 7.0 mi Calm Calm - N/A   Scattered Clouds
1:14 AM 71.6 °F - 69.8 °F 94% 30.01 in 7.0 mi Calm Calm - N/A   Mostly Cloudy
1:34 AM 71.6 °F - 71.6 °F 100% 30.00 in 7.0 mi Calm Calm - N/A   Mostly Cloudy
1:54 AM 71.6 °F - 71.6 °F 100% 29.99 in 10.0 mi Calm Calm - N/A   Overcast
2:14 AM 71.6 °F - 69.8 °F 94% 29.99 in 7.0 mi Calm Calm - N/A   Overcast
2:35 AM 71.6 °F - 69.8 °F 94% 29.99 in 7.0 mi Calm Calm - N/A   Overcast
2:54 AM 71.6 °F - 69.8 °F 94% 29.99 in 7.0 mi Calm Calm - N/A   Mostly Cloudy
3:14 AM 71.6 °F - 69.8 °F 94% 29.99 in 7.0 mi Calm Calm - N/A   Mostly Cloudy
3:34 AM 69.8 °F - 69.8 °F 100% 29.99 in 2.5 mi South 3.5 mph - N/A   Scattered Clouds
3:54 AM 69.8 °F - 69.8 °F 100% 29.99 in 3.0 mi Calm Calm - N/A   Mostly Cloudy
4:14 AM 71.6 °F - 69.8 °F 94% 29.98 in 10.0 mi Calm Calm - N/A   Overcast
4:34 AM 69.8 °F - 69.8 °F 100% 29.98 in 7.0 mi Calm Calm - N/A   Mostly Cloudy
4:54 AM 69.8 °F - 69.8 °F 100% 29.98 in 3.0 mi Calm Calm - N/A   Scattered Clouds
5:14 AM 69.8 °F - 69.8 °F 100% 29.98 in 3.0 mi Calm Calm - N/A   Scattered Clouds
5:37 AM 69.8 °F - 69.8 °F 100% 29.98 in 7.0 mi Calm Calm - N/A   Scattered Clouds
5:55 AM 68.0 °F - 68.0 °F 100% 29.98 in 4.0 mi ESE 3.5 mph - N/A   Mostly Cloudy
6:14 AM 68.0 °F - 68.0 °F 100% 29.98 in 4.0 mi Calm Calm - N/A   Scattered Clouds
6:34 AM 68.0 °F - 68.0 °F 100% 29.98 in 5.0 mi Calm Calm - N/A   Clear
6:54 AM 68.0 °F - 66.2 °F 94% 29.98 in 3.0 mi Calm Calm - N/A   Clear
6:55 AM 67.5 °F - 67.1 °F 99% 29.98 in 3.0 mi Calm Calm - N/A   Clear
7:15 AM 68.0 °F - 67.5 °F 98% 29.98 in 4.0 mi Calm Calm - N/A   Clear
7:35 AM 68.5 °F - 67.8 °F 98% 29.98 in 5.0 mi SSE 4.6 mph - N/A   Clear
7:55 AM 69.3 °F - 68.4 °F 97% 29.99 in 5.0 mi Calm Calm - N/A   Clear
8:15 AM 70.7 °F - 68.9 °F 94% 29.99 in 5.0 mi Calm Calm - N/A   Clear
8:35 AM 70.9 °F - 69.4 °F 95% 29.99 in 7.0 mi Calm Calm - N/A   Clear
8:55 AM 72.5 °F - 70.2 °F 92% 29.99 in 7.0 mi SSE 3.5 mph - N/A   Clear
9:15 AM 73.2 °F - 70.3 °F 91% 30.01 in 7.0 mi Calm Calm - N/A   Clear
9:35 AM 74.1 °F - 70.0 °F 87% 30.00 in 10.0 mi Calm Calm - N/A   Clear
9:55 AM 75.7 °F - 70.7 °F 84% 30.01 in 10.0 mi South 4.6 mph - N/A   Clear
10:15 AM 76.3 °F - 70.9 °F 83% 30.00 in 10.0 mi SSE 5.8 mph - N/A   Clear
10:35 AM 77.0 °F - 70.7 °F 81% 30.00 in 10.0 mi Calm Calm - N/A   Clear
10:55 AM 78.1 °F - 71.2 °F 79% 29.99 in 10.0 mi Calm Calm - N/A   Clear
11:15 AM 79.9 °F - 71.2 °F 75% 30.00 in 10.0 mi Calm Calm - N/A   Clear
11:35 AM 81.5 °F 85.5 °F 71.1 °F 70% 30.00 in 10.0 mi Calm Calm - N/A   Clear
11:55 AM 81.3 °F 85.4 °F 71.2 °F 71% 29.99 in 10.0 mi SSE 4.6 mph - N/A   Clear
12:15 PM 82.0 °F 86.7 °F 71.6 °F 71% 29.99 in 10.0 mi SSE 4.6 mph - N/A   Clear
12:35 PM 82.8 °F 86.9 °F 70.5 °F 66% 29.99 in 10.0 mi Calm Calm - N/A   Scattered Clouds
12:55 PM 84.0 °F 89.3 °F 71.4 °F 66% 29.98 in 10.0 mi SSE 3.5 mph - N/A   Scattered Clouds
1:15 PM 84.2 °F 89.3 °F 71.2 °F 65% 29.97 in 10.0 mi South 4.6 mph - N/A   Mostly Cloudy
1:35 PM 82.9 °F 87.5 °F 71.1 °F 67% 29.97 in 10.0 mi SSW 3.5 mph - N/A   Scattered Clouds
1:55 PM 84.9 °F 90.7 °F 72.0 °F 65% 29.95 in 10.0 mi South 6.9 mph - N/A   Clear
2:15 PM 85.3 °F 91.5 °F 72.3 °F 65% 29.95 in 10.0 mi South 5.8 mph - N/A   Scattered Clouds
2:35 PM 85.1 °F 90.4 °F 71.1 °F 63% 29.96 in 10.0 mi SSW 4.6 mph - N/A   Mostly Cloudy
2:55 PM 86.4 °F 91.4 °F 70.3 °F 59% 29.93 in 10.0 mi SW 4.6 mph - N/A   Scattered Clouds
3:15 PM 86.4 °F 92.6 °F 71.8 °F 62% 29.94 in 10.0 mi WSW 4.6 mph - N/A Thunderstorm Scattered Clouds
3:35 PM 84.7 °F 89.4 °F 70.5 °F 62% 29.93 in 10.0 mi South 6.9 mph - N/A Thunderstorm Scattered Clouds
3:55 PM 83.3 °F 87.9 °F 70.7 °F 66% 29.95 in 10.0 mi NNW 6.9 mph - N/A Thunderstorm Thunderstorm
4:15 PM 74.1 °F - 67.3 °F 79% 29.95 in 4.0 mi NW 12.7 mph 19.6 mph 0.03 in Rain , Thunderstorm Heavy Thunderstorms and Rain
4:35 PM 72.0 °F - 68.5 °F 89% 29.95 in 3.0 mi SSW 4.6 mph - 0.20 in Rain , Thunderstorm Light Thunderstorms and Rain
4:55 PM 71.6 °F - 70.3 °F 96% 29.95 in 7.0 mi Calm Calm - 0.20 in Thunderstorm Thunderstorm
5:15 PM 72.1 °F - 70.5 °F 95% 29.97 in 5.0 mi NNW 3.5 mph - N/A Thunderstorm Mostly Cloudy
5:35 PM 72.3 °F - 70.5 °F 94% 29.95 in 7.0 mi SSE 4.6 mph - N/A   Overcast
5:55 PM 71.6 °F - 69.3 °F 92% 29.95 in 10.0 mi Calm Calm - 0.01 in Rain Light Rain
6:15 PM 71.6 °F - 69.8 °F 94% 29.94 in 10.0 mi SW 4.6 mph - N/A   Overcast
6:35 PM 71.8 °F - 69.6 °F 93% 29.94 in 10.0 mi WSW 4.6 mph - N/A   Scattered Clouds
6:55 PM 73.4 °F - 70.2 °F 90% 29.94 in 10.0 mi Calm Calm - N/A   Clear
7:15 PM 73.8 °F - 70.5 °F 90% 29.95 in 10.0 mi Calm Calm - N/A   Scattered Clouds
7:35 PM 72.7 °F - 70.9 °F 94% 29.95 in 10.0 mi Calm Calm - N/A   Clear
7:55 PM 72.3 °F - 70.9 °F 95% 29.95 in 7.0 mi Calm Calm - N/A   Clear
8:34 PM 71.6 °F - 71.6 °F 100% 29.96 in 7.0 mi Calm Calm - N/A   Clear
8:55 PM 71.6 °F - 69.8 °F 94% 29.96 in 7.0 mi Calm Calm - N/A   Clear
9:14 PM 71.6 °F - 69.8 °F 94% 29.97 in 7.0 mi Calm Calm - N/A   Clear
9:34 PM 71.6 °F - 69.8 °F 94% 29.97 in 7.0 mi Calm Calm - N/A   Clear
9:54 PM 69.8 °F - 69.8 °F 100% 29.97 in 3.0 mi Calm Calm - N/A   Clear
10:14 PM 69.8 °F - 69.8 °F 100% 29.96 in 4.0 mi Calm Calm - N/A   Clear
10:35 PM 69.8 °F - 69.8 °F 100% 29.96 in 7.0 mi Calm Calm - N/A   Clear
10:57 PM 68.0 °F - 68.0 °F 100% 29.96 in 0.8 mi SSW 10.4 mph - N/A   Mostly Cloudy
11:14 PM 69.8 °F - 69.8 °F 100% 29.96 in 0.5 mi SSW 11.5 mph - N/A Fog Fog
11:34 PM 69.8 °F - 69.8 °F 100% 29.96 in 0.5 mi Calm Calm - N/A Fog Fog
11:54 PM 69.8 °F - 69.8 °F 100% 29.96 in 3.0 mi Calm Calm - N/A   Mostly Cloudy